Location: Ferchesar
(52.6477°N, 12.4298°E)
Time: 15:36:27
(UTC+01:00)

deb Explorer IX - Pass Details

Date: 15 December 2021
Orbit: 544 x 1082 km, 38.8° (Epoch: 18 January)

Event Time Altitude Azimuth Distance (km) Brightness Sun altitude
Rises 08:17:34 0° 246° (WSW) 3,568 ? -0.6°
Reaches altitude 10° 08:21:01 10° 231° (SW) 2,518 ? -0.2°
Maximum altitude 08:25:04 19° 187° (S) 1,822 ? 0.3°
Drops below altitude 10° 08:28:46 10° 143° (SE) 2,251 ? 0.7°
Sets 08:31:38 0° 126° (SE) 3,070 ? 1.0°
